Wetbulb
59.50 59.26 59.00 58.83 58.28 57.69 57.39 57.03 56.58 56.48 56.41 57.15 57.25 57.05 57.11 57.29 55.42 51.63 45.50 51.12 53.05 58.92 57.63 51.08 48.86 48.31 46.34 43.30 41.67 39.48 34.38 31.82 35.49 36.84 42.05 50.96 47.92 51.93 52.72 53.07 55.96 57.99 56.26 59.91 62.32
60.06 59.94 59.52 58.98 57.78 57.45 57.18 56.82 55.97 56.07 56.62 57.08 56.93 57.02 57.09 56.57 51.74 48.00 54.82 58.60 59.60 60.29 50.29 47.86 44.83 45.85 42.53 41.17 40.56 38.21 32.58 35.25 39.26 41.42 46.94 49.96 47.91 49.46 49.08 51.53 54.28 57.09 60.06 61.16 60.92
60.25 59.97 59.47 58.95 58.16 57.45 57.08 56.35 55.81 56.14 56.52 56.83 56.79 56.82 56.51 54.94 44.65 48.21 61.13 60.55 60.16 58.71 51.08 48.68 47.65 45.36 41.06 40.29 39.82 37.11 36.70 39.75 42.44 48.75 49.75 49.21 48.08 50.04 47.68 45.85 53.09 55.07 56.52 59.47 59.66
59.43 59.23 58.82 58.61 58.18 57.51 56.55 55.78 55.81 56.02 56.26 56.37 56.26 56.76 56.33 51.59 37.71 47.20 62.37 62.25 61.42 55.51 50.09 46.75 45.03 42.35 40.35 39.09 40.95 36.66 40.64 41.23 46.87 50.23 49.30 47.98 48.95 48.04 47.92 48.53 56.64 57.93 59.15 59.38 58.28
58.43 58.10 58.01 58.18 57.92 57.22 56.33 55.60 55.68 55.60 55.65 55.89 56.06 56.50 51.56 42.81 43.92 49.95 60.32 61.15 55.52 51.38 47.71 46.77 45.55 43.92 40.61 41.21 41.11 38.20 43.60 47.81 49.18 49.20 48.35 49.48 45.52 47.46 49.67 55.58 58.41 59.01 58.55 57.98 57.82
58.12 57.77 57.37 57.30 57.22 57.00 56.39 55.62 55.01 54.91 55.18 55.58 55.92 56.21 48.46 38.59 48.82 55.61 51.64 51.95 52.17 49.30 47.37 47.12 46.66 47.01 43.80 42.43 41.75 47.19 46.04 46.86 47.24 47.57 49.12 46.30 46.51 46.05 51.39 57.41 57.47 57.31 57.25 57.05 57.38
57.31 57.74 57.35 57.31 57.07 56.63 56.17 55.38 54.63 54.48 55.05 55.40 55.57 53.83 47.49 42.69 49.18 50.84 53.45 51.92 51.94 50.65 46.69 48.44 49.09 46.15 46.24 43.07 47.06 45.74 43.47 45.04 45.07 46.57 45.75 46.10 41.86 43.58 52.95 56.55 55.30 55.64 56.85 56.85 57.03
56.30 57.27 56.98 56.62 56.18 55.82 55.42 54.53 54.16 54.38 55.03 55.19 55.17 50.23 41.75 51.04 51.31 53.21 52.46 53.01 52.91 52.51 49.43 50.22 49.56 47.34 45.33 45.85 43.98 42.37 39.60 37.20 42.79 45.46 45.59 44.06 37.95 46.02 54.08 55.38 54.42 54.95 55.73 56.26 56.25
55.88 55.74 56.60 56.20 55.54 55.06 54.37 53.90 54.08 55.05 55.44 54.79 49.05 45.83 42.70 53.60 49.40 52.23 53.93 51.69 51.61 51.41 50.28 52.24 49.13 44.92 45.25 40.03 36.38 37.48 32.79 36.22 39.61 47.30 44.01 43.87 39.13 47.53 54.89 54.57 53.57 54.20 54.79 54.92 54.83
55.38 55.64 56.36 56.32 55.70 54.39 53.29 53.59 53.89 53.60 53.73 53.91 52.05 43.47 45.19 46.20 50.49 52.51 52.89 52.70 49.31 49.15 48.83 47.07 44.12 40.81 39.82 37.17 31.44 33.77 34.67 38.68 37.35 43.59 44.40 41.02 41.97 45.12 52.39 54.32 53.57 53.63 54.17 54.63 53.84
55.29 55.46 56.10 56.34 55.84 54.12 51.22 48.14 44.08 45.80 48.92 45.36 44.91 43.03 44.03 50.81 53.33 49.66 50.60 49.94 49.10 47.47 41.62 44.27 40.49 36.97 38.86 40.25 41.80 41.18 40.21 38.65 40.08 44.43 40.66 40.27 41.01 43.10 47.33 51.72 52.46 52.64 52.80 53.95 54.54
54.89 54.54 55.15 56.32 55.86 53.85 50.53 43.79 45.36 47.35 42.40 47.44 48.47 47.81 49.43 51.49 47.62 50.11 50.48 45.67 44.43 40.14 43.07 41.02 38.04 42.66 43.37 43.67 42.09 41.26 40.43 38.83 41.69 42.18 41.58 39.71 39.58 42.24 45.75 49.11 52.13 53.00 52.78 53.90 55.31
54.30 54.07 54.50 55.46 54.35 51.68 47.14 47.22 51.44 50.84 41.96 43.89 47.98 47.45 48.39 50.67 47.01 47.31 48.79 45.41 42.29 40.31 40.92 38.16 41.24 45.37 44.09 41.79 40.87 39.53 38.80 37.52 38.67 40.18 40.59 38.39 37.37 40.49 43.77 47.27 49.62 52.71 54.61 54.18 54.49
53.32 53.42 53.54 54.46 50.75 49.08 47.05 52.09 52.27 50.26 34.53 38.67 45.11 47.77 50.43 50.48 45.57 51.93 49.42 46.59 42.74 40.51 40.38 39.42 42.80 42.98 41.48 40.88 41.30 36.34 42.52 41.88 40.34 36.72 32.13 36.81 29.95 35.90 39.91 44.43 47.44 49.84 51.96 53.13 52.52
53.11 53.15 53.25 53.52 49.32 48.24 51.17 51.82 51.95 48.12 22.44 40.65 46.29 52.45 50.13 45.63 44.71 45.54 48.65 45.93 42.00 42.02 41.60 39.34 40.64 40.71 39.66 40.85 42.85 39.54 43.02 41.66 41.16 37.20 33.97 34.15 31.49 35.42 39.83 41.50 45.37 47.65 48.53 52.11 52.01
52.85 52.93 52.59 53.26 51.50 50.69 52.19 52.33 51.62 35.91 24.37 38.18 46.36 44.93 43.56 42.39 43.13 44.51 45.32 46.60 45.91 43.21 41.47 39.96 44.02 43.34 42.38 43.80 43.72 43.87 41.19 38.96 37.33 35.66 29.58 34.22 33.00 32.74 36.27 40.79 44.31 46.50 46.95 49.01 50.18
52.12 52.61 52.66 54.25 49.90 51.18 52.22 49.48 40.18 29.88 40.32 38.83 41.72 43.28 40.76 39.36 40.30 42.14 40.94 39.93 38.05 34.94 34.42 39.04 40.34 42.54 44.87 40.10 42.02 40.08 35.60 28.32 27.04 26.83 28.00 36.01 33.60 36.22 39.19 42.41 44.06 45.82 47.72 47.89 48.53
51.18 51.45 51.28 52.80 53.14 51.42 51.88 45.19 32.67 36.39 37.68 44.09 42.02 41.45 38.36 39.51 39.59 40.55 38.61 37.12 38.27 38.40 34.12 33.70 31.71 40.40 43.53 41.42 38.48 38.33 36.89 29.36 25.20 24.61 27.23 35.55 32.08 36.89 42.84 44.93 45.67 45.14 45.81 47.66 45.91
50.84 46.37 47.60 49.81 53.71 51.14 47.11 36.75 32.93 36.87 42.11 40.31 40.08 36.35 36.31 39.69 39.02 38.95 37.21 36.70 39.03 40.14 35.36 33.08 34.08 41.98 44.27 44.36 42.23 38.26 34.95 38.06 31.54 30.37 27.08 30.98 35.53 39.80 41.99 43.35 45.57 43.89 44.68 44.72 45.28
47.09 43.43 43.44 50.43 54.57 49.86 41.23 37.26 39.45 43.01 45.08 44.35 36.35 38.04 33.67 36.28 37.20 37.33 36.27 39.81 39.44 41.54 41.06 38.65 32.64 40.52 43.19 44.36 43.38 40.05 42.22 33.55 31.88 26.70 25.26 27.95 29.90 32.44 38.42 40.71 43.50 44.12 44.29 45.81 46.10
45.72 39.74 43.36 50.85 53.19 46.01 35.52 36.91 42.28 45.72 45.76 42.78 40.64 38.51 37.55 36.56 37.75 35.80 37.14 40.08 41.71 40.67 41.33 39.78 36.11 34.79 40.65 39.45 38.32 37.99 36.25 35.46 35.31 30.50 26.52 23.83 29.20 37.47 39.10 41.54 41.30 42.32 45.22 45.20 48.65
43.29 33.37 46.13 52.21 41.50 42.88 38.99 38.53 43.31 43.81 45.41 43.40 43.11 42.83 39.75 38.40 36.53 36.73 37.65 40.78 43.21 42.56 39.08 41.41 36.06 30.78 36.73 40.43 42.01 39.65 38.49 37.08 29.57 29.64 29.29 26.70 28.52 39.72 40.03 41.13 42.62 43.97 45.79 46.03 49.04
39.15 37.56 50.45 49.27 34.81 37.63 41.57 39.86 41.69 41.89 42.04 41.02 41.13 43.37 43.20 38.50 35.18 38.24 39.42 43.68 43.11 42.47 40.72 41.60 34.55 28.70 32.10 36.23 39.70 37.94 38.96 38.41 35.49 31.87 29.64 24.81 29.75 40.28 40.20 40.49 41.87 43.27 44.28 47.09 48.98
39.08 31.46 41.93 44.47 41.82 38.15 38.58 38.49 37.38 43.86 42.20 42.49 41.25 42.77 41.70 38.90 40.25 37.82 39.47 43.75 44.98 43.79 44.87 44.06 36.98 33.44 30.31 33.13 37.16 35.66 37.97 38.46 36.91 28.88 30.35 29.61 33.33 38.21 39.61 39.84 40.93 41.99 42.91 42.88 47.56
39.44 33.46 39.87 35.32 36.22 38.45 39.73 39.63 36.87 37.34 42.38 42.50 39.54 40.44 40.12 36.36 37.49 37.97 42.02 43.18 44.49 44.49 42.38 41.48 35.22 35.82 36.25 36.95 37.62 37.13 36.97 36.17 35.18 34.77 31.74 34.35 33.25 37.98 39.42 39.20 39.86 40.17 40.93 41.89 43.85
35.62 35.60 40.85 37.59 39.12 38.34 40.12 37.87 37.55 38.65 40.04 38.73 38.29 40.32 41.04 37.73 39.40 38.40 42.70 41.30 40.21 41.28 40.49 40.07 34.97 34.45 33.55 35.39 36.55 35.08 37.85 37.05 36.75 35.84 35.14 35.11 34.51 39.24 37.98 38.52 39.27 39.89 41.79 43.76 44.43
40.91 41.14 41.21 38.32 38.80 36.34 36.97 38.10 38.43 40.86 42.09 42.61 41.73 40.61 39.12 41.29 43.99 45.05 45.35 44.69 43.54 40.28 38.43 37.95 35.01 31.68 30.30 32.54 33.29 29.25 34.29 37.06 37.47 37.25 37.34 32.44 37.08 38.30 37.29 38.67 37.77 39.98 41.97 43.24 43.70
MSLP
1019.90 1019.74 1019.64 1019.60 1019.39 1019.25 1019.08 1018.79 1018.56 1018.36 1017.95 1017.57 1017.21 1016.62 1016.16 1015.62 1014.78 1014.38 1013.63 1011.65 1011.69 1011.17 1011.36 1011.66 1011.87 1012.02 1012.27 1012.56 1013.05 1013.57 1014.57 1014.82 1013.87 1013.06 1012.53 1012.22 1012.51 1012.40 1012.57 1012.78 1013.37 1013.44 1013.56 1013.87 1014.47
1019.74 1019.64 1019.57 1019.38 1019.29 1019.08 1018.94 1018.71 1018.37 1018.17 1017.85 1017.47 1017.09 1016.53 1016.05 1015.58 1014.78 1013.54 1011.23 1011.08 1011.16 1011.24 1011.32 1011.51 1011.74 1011.82 1012.39 1012.57 1013.03 1013.49 1014.52 1013.83 1012.84 1012.50 1012.29 1012.29 1012.49 1012.53 1012.83 1013.10 1013.68 1013.94 1014.10 1014.42 1014.78
1019.59 1019.40 1019.40 1019.23 1019.11 1018.89 1018.71 1018.49 1018.27 1017.96 1017.78 1017.50 1016.91 1016.41 1015.91 1015.58 1014.56 1011.69 1010.80 1010.72 1010.99 1011.25 1011.20 1011.21 1011.35 1011.52 1012.03 1012.33 1012.69 1013.09 1013.10 1012.39 1011.97 1011.91 1011.93 1012.49 1012.74 1012.75 1012.93 1013.09 1013.29 1013.63 1014.16 1014.76 1015.03
1019.38 1019.27 1019.17 1019.05 1018.91 1018.81 1018.51 1018.26 1018.08 1017.81 1017.65 1017.45 1016.89 1016.38 1015.82 1015.53 1013.69 1010.86 1010.70 1010.37 1010.79 1011.12 1011.27 1011.34 1011.46 1011.64 1011.97 1012.17 1012.06 1012.46 1012.06 1012.18 1012.00 1011.90 1012.16 1012.67 1012.83 1013.00 1013.00 1012.67 1012.62 1012.85 1013.64 1014.59 1014.86
1019.09 1019.02 1018.97 1018.84 1018.70 1018.63 1018.39 1018.06 1017.83 1017.67 1017.50 1017.27 1016.91 1016.53 1015.84 1015.08 1012.56 1010.60 1010.68 1010.70 1010.97 1011.23 1011.23 1011.34 1011.14 1011.40 1011.65 1011.74 1011.84 1012.10 1011.94 1011.81 1011.82 1012.09 1012.49 1012.45 1012.85 1012.91 1013.16 1013.01 1013.01 1013.48 1014.21 1014.68 1015.23
1018.90 1018.77 1018.72 1018.59 1018.51 1018.44 1018.25 1017.85 1017.56 1017.47 1017.27 1017.09 1016.88 1016.74 1016.46 1014.48 1010.76 1010.54 1010.75 1010.78 1010.86 1010.99 1011.08 1011.20 1010.84 1010.87 1011.23 1011.43 1011.62 1012.06 1011.97 1012.03 1012.09 1012.22 1012.26 1012.54 1012.90 1012.85 1013.64 1013.68 1013.62 1014.02 1014.59 1014.66 1015.17
1018.71 1018.53 1018.45 1018.34 1018.25 1018.23 1018.03 1017.62 1017.36 1017.10 1016.91 1016.94 1016.74 1016.90 1016.38 1012.75 1010.61 1010.70 1010.82 1010.53 1010.48 1010.49 1010.77 1010.71 1010.49 1010.70 1010.96 1011.18 1011.56 1011.81 1012.14 1012.00 1012.00 1012.26 1012.50 1012.41 1012.90 1012.98 1013.32 1013.89 1013.96 1014.45 1014.74 1014.92 1015.40
1018.49 1018.42 1018.26 1018.13 1018.06 1018.03 1017.80 1017.39 1017.04 1016.69 1016.53 1016.60 1016.52 1016.82 1014.91 1011.10 1010.72 1010.55 1010.38 1010.12 1010.13 1010.09 1010.34 1010.19 1010.35 1010.60 1011.00 1011.30 1011.56 1011.97 1012.32 1012.38 1012.28 1012.29 1012.55 1012.53 1012.76 1012.71 1013.40 1013.80 1014.07 1014.55 1014.95 1015.23 1015.45
1018.23 1018.21 1018.15 1017.96 1017.88 1017.76 1017.56 1017.11 1016.65 1016.23 1016.21 1016.32 1016.47 1016.39 1013.61 1010.80 1010.59 1009.45 1009.59 1009.74 1009.64 1009.79 1010.06 1010.12 1010.33 1010.86 1011.15 1011.80 1012.45 1012.59 1012.68 1012.39 1011.96 1011.74 1012.08 1012.52 1012.65 1012.73 1013.30 1013.86 1014.19 1014.62 1015.13 1015.13 1015.56
1018.01 1017.89 1017.99 1017.77 1017.68 1017.64 1017.30 1016.69 1016.19 1016.25 1016.39 1016.27 1016.08 1016.15 1012.51 1010.66 1009.70 1009.35 1009.14 1009.37 1009.45 1009.80 1010.12 1010.37 1011.04 1011.59 1012.19 1012.44 1012.89 1012.65 1012.40 1011.91 1011.79 1011.78 1011.96 1012.36 1012.47 1012.84 1013.39 1013.68 1014.05 1014.51 1015.12 1015.32 1015.32
1017.70 1017.66 1017.78 1017.62 1017.48 1017.53 1017.24 1016.72 1016.55 1016.29 1015.81 1014.45 1013.95 1013.18 1011.71 1010.60 1009.63 1009.15 1008.93 1009.14 1009.39 1010.13 1010.57 1010.92 1011.61 1012.07 1012.15 1011.86 1011.55 1011.76 1011.92 1012.02 1011.40 1011.23 1011.94 1011.80 1012.02 1012.36 1013.17 1013.84 1014.04 1014.31 1014.72 1015.00 1014.77
1017.58 1017.25 1017.59 1017.37 1017.26 1017.38 1017.49 1017.55 1015.98 1016.15 1015.05 1013.11 1012.62 1012.19 1011.28 1011.01 1010.67 1009.12 1008.79 1009.10 1009.74 1010.53 1010.94 1011.48 1011.65 1011.38 1011.37 1011.73 1011.90 1011.63 1011.79 1011.84 1011.54 1011.56 1012.03 1011.78 1011.79 1012.14 1012.63 1012.65 1012.88 1013.30 1013.93 1014.03 1014.28
1017.25 1017.16 1017.23 1017.17 1017.10 1017.36 1017.33 1016.54 1015.66 1015.60 1015.27 1012.17 1011.16 1010.76 1010.45 1010.70 1010.20 1009.14 1008.92 1008.95 1009.70 1010.71 1011.12 1011.37 1011.06 1010.96 1011.20 1011.37 1011.62 1011.60 1011.65 1011.72 1012.01 1011.75 1011.81 1011.95 1011.94 1011.91 1011.88 1012.03 1012.29 1012.63 1012.53 1013.23 1013.51
1016.92 1016.91 1016.92 1017.14 1017.52 1016.95 1016.70 1015.82 1015.63 1015.74 1014.89 1011.51 1010.21 1008.97 1009.24 1009.60 1009.33 1008.33 1008.28 1008.60 1009.47 1010.24 1011.17 1011.26 1010.70 1010.75 1010.91 1011.13 1011.29 1011.41 1011.31 1011.64 1011.94 1012.18 1012.50 1012.31 1012.47 1011.91 1011.47 1011.46 1011.47 1011.75 1012.12 1012.44 1012.88
1016.44 1016.68 1016.91 1016.87 1016.97 1016.73 1015.94 1015.66 1015.51 1015.42 1013.88 1009.75 1008.89 1008.17 1008.30 1008.62 1007.95 1007.94 1007.79 1008.23 1009.18 1010.11 1010.97 1010.76 1010.55 1010.73 1010.78 1010.80 1010.89 1011.09 1011.16 1011.82 1012.09 1012.51 1012.84 1012.68 1013.02 1011.50 1011.35 1011.35 1010.93 1010.87 1011.24 1011.54 1011.78
1015.93 1016.44 1016.56 1016.53 1016.88 1015.94 1015.69 1015.74 1015.52 1015.37 1012.20 1008.90 1008.03 1008.01 1008.45 1008.17 1007.80 1007.94 1008.07 1008.11 1008.87 1009.99 1010.53 1010.42 1010.21 1010.30 1010.11 1010.13 1010.37 1010.85 1011.60 1012.32 1012.92 1013.50 1013.87 1013.15 1013.05 1011.73 1011.01 1009.95 1009.62 1010.04 1010.47 1010.69 1011.26
1015.55 1016.02 1016.26 1015.90 1015.74 1015.68 1015.69 1015.70 1015.57 1013.79 1010.15 1008.57 1007.99 1007.96 1008.23 1008.13 1008.05 1007.87 1008.31 1008.67 1009.24 1010.29 1010.77 1010.73 1010.22 1009.84 1009.82 1010.06 1010.34 1010.97 1011.94 1013.31 1014.20 1014.55 1014.16 1013.28 1012.98 1010.84 1009.97 1009.52 1009.29 1009.34 1009.37 1009.63 1010.35
1015.26 1015.48 1015.56 1015.81 1015.27 1015.69 1015.54 1015.55 1014.11 1011.38 1009.71 1008.13 1007.66 1008.00 1008.22 1007.98 1008.08 1008.16 1008.59 1009.08 1009.45 1009.85 1010.99 1011.08 1010.50 1009.89 1009.61 1009.85 1010.40 1011.15 1011.87 1013.70 1014.71 1015.55 1014.74 1013.28 1012.31 1010.15 1009.31 1008.96 1008.78 1008.62 1008.73 1009.24 1010.11
1014.84 1015.27 1015.29 1015.16 1015.40 1015.50 1015.55 1014.14 1011.49 1010.60 1009.11 1008.28 1007.79 1008.07 1008.20 1007.88 1007.82 1008.45 1008.77 1008.91 1009.01 1009.40 1010.30 1010.84 1010.39 1009.77 1009.80 1009.77 1010.32 1011.28 1012.01 1013.02 1014.56 1015.93 1015.54 1013.86 1012.05 1009.90 1009.00 1008.74 1008.57 1008.87 1009.15 1009.26 1009.62
1014.43 1014.89 1014.28 1014.54 1014.80 1015.26 1015.07 1012.09 1010.74 1009.74 1008.73 1008.27 1007.87 1007.35 1007.72 1007.83 1008.00 1008.31 1008.70 1008.31 1008.52 1008.76 1008.84 1009.93 1010.51 1010.07 1009.89 1009.98 1010.28 1010.77 1011.71 1013.08 1014.53 1015.67 1015.75 1014.35 1012.95 1011.03 1009.58 1009.13 1008.99 1008.85 1009.01 1009.68 1010.05
1013.96 1014.10 1012.48 1013.66 1014.46 1014.06 1012.35 1011.18 1010.44 1009.38 1009.11 1008.75 1008.03 1007.53 1007.27 1007.52 1007.73 1008.04 1008.15 1007.75 1007.69 1008.49 1008.81 1009.63 1010.23 1010.95 1010.52 1010.05 1010.33 1011.24 1011.86 1013.04 1014.10 1015.37 1015.58 1015.03 1013.07 1010.73 1009.81 1009.19 1009.03 1009.13 1009.37 1009.62 1010.14
1012.47 1012.67 1011.18 1012.32 1013.21 1011.65 1010.52 1010.71 1010.29 1009.48 1009.39 1008.84 1008.30 1007.84 1007.09 1006.94 1007.26 1007.57 1007.50 1007.02 1006.83 1007.71 1009.05 1009.22 1009.95 1010.83 1010.28 1009.95 1009.69 1010.23 1011.09 1012.33 1014.11 1015.23 1015.61 1014.99 1012.46 1010.06 1009.52 1009.24 1009.11 1009.01 1009.28 1009.56 1009.89
1010.90 1011.22 1011.07 1010.65 1010.84 1009.59 1009.93 1009.85 1010.04 1009.59 1009.25 1009.00 1008.42 1007.77 1007.09 1006.75 1007.01 1006.96 1006.75 1006.28 1006.55 1007.30 1008.00 1009.11 1009.87 1010.87 1010.66 1010.61 1010.45 1010.60 1011.08 1011.85 1012.99 1013.99 1014.67 1014.58 1012.23 1010.22 1009.84 1009.47 1009.14 1009.24 1009.17 1009.44 1009.81
1010.19 1010.52 1010.03 1009.94 1008.38 1008.89 1009.06 1009.13 1009.52 1009.33 1009.43 1009.03 1008.69 1007.90 1007.48 1006.83 1006.31 1006.39 1006.52 1006.24 1006.52 1007.02 1007.24 1008.01 1009.18 1009.99 1010.26 1009.99 1009.98 1010.53 1010.57 1011.18 1012.15 1013.57 1013.53 1013.06 1011.78 1010.66 1010.09 1009.95 1009.53 1009.35 1009.25 1009.57 1009.81
1008.76 1007.89 1006.88 1006.68 1007.81 1007.67 1008.15 1007.95 1008.74 1008.74 1008.85 1008.90 1008.73 1008.17 1007.66 1007.22 1006.53 1006.25 1006.31 1006.44 1006.77 1007.17 1007.70 1008.11 1009.24 1009.76 1009.63 1009.57 1009.73 1009.86 1010.17 1010.76 1011.45 1011.42 1011.99 1011.63 1011.55 1010.66 1010.13 1010.14 1009.88 1009.69 1009.51 1009.84 1009.98
1007.39 1006.59 1006.25 1006.20 1006.70 1007.87 1007.29 1007.11 1007.46 1008.28 1008.32 1008.30 1008.53 1007.87 1007.74 1007.52 1006.56 1006.59 1006.55 1006.77 1006.86 1007.57 1008.00 1008.56 1009.44 1010.03 1010.43 1010.17 1009.97 1010.05 1009.80 1009.98 1010.34 1010.73 1010.95 1010.95 1010.93 1010.07 1010.13 1010.37 1010.53 1010.45 1010.29 1010.68 1010.79
1007.08 1006.19 1005.73 1005.38 1006.00 1006.70 1005.16 1006.01 1006.75 1007.96 1007.94 1007.55 1007.73 1008.03 1007.65 1006.98 1006.43 1006.66 1006.95 1007.04 1007.29 1007.86 1008.09 1008.94 1009.89 1011.09 1011.78 1011.45 1010.91 1010.83 1009.59 1009.46 1009.32 1009.26 1009.61 1010.26 1009.99 1010.06 1010.66 1011.17 1011.60 1011.77 1011.74 1012.03 1012.22
Wind_Speed
9 9 9 9 9 9 10 11 11 13 16 18 19 19 19 18 15 0 5 8 5 6 3 5 2 2 2 2 2 3 5 2 5 4 4 1 1 2 1 4 3 5 2 9 10
10 10 10 9 9 10 10 11 11 13 14 16 17 18 17 18 4 4 10 5 10 3 4 4 2 4 2 1 1 5 4 8 6 4 5 3 3 2 2 4 5 7 12 12 12
11 10 10 10 10 9 10 11 12 12 14 15 16 18 17 11 5 5 5 10 10 6 1 2 2 2 1 1 3 5 7 6 6 7 4 4 0 1 3 2 6 12 14 10 12
11 11 11 10 10 10 10 11 12 12 13 15 17 17 19 3 1 1 5 2 10 7 1 3 2 3 0 2 3 2 6 4 1 4 5 6 4 2 2 4 9 20 17 14 14
11 12 11 10 10 10 11 11 12 12 12 14 15 15 7 4 10 3 7 9 7 5 3 2 3 3 1 3 2 2 4 2 3 6 5 5 1 4 2 3 11 11 13 12 9
12 12 11 10 10 11 11 12 12 12 11 11 12 12 3 5 3 3 5 2 6 4 2 3 2 5 3 3 1 1 4 1 3 2 3 4 3 1 3 9 11 12 10 8 8
13 13 11 11 10 11 12 12 13 13 11 10 8 2 2 17 2 7 5 3 5 6 3 4 3 2 1 2 5 2 4 4 2 1 2 2 2 3 10 10 10 10 11 8 9
14 13 12 10 9 11 12 14 15 14 12 9 2 1 10 5 3 9 3 5 5 5 3 2 2 2 2 1 4 3 4 4 1 2 2 2 6 2 13 12 10 8 10 9 7
13 14 13 11 9 9 11 15 17 13 5 5 3 2 12 6 3 7 7 4 4 3 4 2 2 2 5 4 5 5 1 3 4 5 2 2 3 4 13 11 9 8 8 9 7
13 13 14 11 9 7 10 16 9 1 2 3 1 2 7 2 3 4 4 4 3 1 1 3 5 3 4 5 3 2 2 2 4 4 3 2 7 5 11 10 11 9 7 9 9
12 11 13 11 8 6 6 6 4 3 3 9 6 4 5 8 3 3 2 6 3 6 2 2 5 3 7 5 8 5 4 2 4 6 3 9 7 8 9 6 9 9 9 10 13
12 9 12 10 6 2 2 4 3 2 9 11 15 9 6 3 5 5 4 5 5 6 2 5 4 4 3 2 4 2 2 4 6 2 6 5 7 4 10 13 13 15 13 14 10
12 9 9 9 2 1 3 7 2 3 4 9 7 6 6 9 8 7 7 5 5 5 5 6 6 4 5 4 3 3 4 3 5 3 2 1 5 5 6 6 7 10 13 11 14
11 8 7 4 1 3 4 1 5 5 3 8 5 8 7 8 5 8 7 7 2 9 7 4 3 4 4 5 6 6 5 3 4 1 1 1 4 5 5 8 9 13 12 13 13
11 9 7 11 2 3 1 5 1 0 4 4 4 3 7 11 6 6 5 4 8 6 6 7 4 4 4 6 5 8 4 5 3 2 3 2 3 8 3 6 12 13 13 15 16
11 10 5 4 2 5 6 6 1 3 10 4 6 7 6 3 2 4 4 4 4 5 1 5 3 5 7 3 5 0 3 4 4 3 1 2 5 7 5 8 6 5 10 14 13
12 10 6 3 2 0 2 0 3 7 3 5 5 6 5 6 3 5 7 7 7 5 3 2 3 2 3 1 1 3 5 4 6 4 6 2 1 10 1 5 9 12 15 16 14
14 9 5 7 2 1 2 3 11 5 6 4 2 5 8 6 5 5 7 7 3 5 4 6 5 6 3 4 4 1 6 6 2 2 5 5 5 7 4 6 7 9 10 10 10
12 2 4 5 6 2 2 11 7 7 4 3 3 5 5 5 7 5 7 9 9 8 7 5 6 2 2 2 4 2 2 3 7 2 3 4 8 10 4 4 5 5 3 8 10
6 3 9 8 10 3 4 18 8 4 3 3 7 5 9 7 7 8 8 6 6 10 5 8 0 2 2 3 1 1 6 4 3 1 4 5 5 6 9 7 6 8 6 2 4
6 4 4 13 8 5 14 12 12 10 4 3 2 3 7 8 9 6 10 3 8 6 5 6 6 3 1 5 8 3 1 4 5 5 4 1 7 8 7 5 3 4 7 6 7
6 9 5 15 13 7 15 9 8 14 2 3 3 4 6 7 7 7 10 9 9 12 10 7 6 6 9 1 4 5 8 7 6 5 1 4 9 5 9 7 4 6 5 5 6
6 7 11 13 15 18 10 12 4 8 6 4 4 4 2 3 5 7 8 5 9 9 10 8 1 1 8 5 3 3 5 5 5 4 7 6 8 3 6 8 6 8 6 5 6
5 9 5 12 17 18 20 15 21 5 9 1 4 3 2 2 4 5 7 2 7 7 7 8 4 9 10 9 6 5 6 7 6 5 5 8 6 9 8 7 8 8 7 6 7
6 8 7 14 20 20 21 15 19 17 11 8 4 5 2 2 2 4 2 2 2 5 5 7 8 6 5 4 6 6 5 8 7 6 8 8 8 9 7 6 7 6 7 5 7
6 6 3 8 19 23 16 23 25 21 9 11 7 6 6 5 4 4 2 1 5 5 7 2 5 4 4 1 0 3 7 8 5 4 5 5 7 8 1 1 5 6 4 6 6
4 3 3 10 19 19 26 22 21 18 19 6 18 13 6 15 9 2 3 3 4 2 6 8 8 5 5 2 4 6 8 9 7 6 9 8 12 6 3 3 3 5 6 7 7
Wind_Direction
282 286 292 300 305 311 315 318 321 323 327 327 326 325 327 321 320 70 253 214 201 227 173 140 139 122 70 97 99 130 62 243 252 180 252 213 94 300 80 77 54 348 87 122 116
275 280 286 295 301 309 313 317 321 321 326 326 324 323 325 326 314 264 252 206 211 133 127 134 151 150 50 131 134 105 117 228 216 205 231 124 127 257 14 98 81 85 108 116 129
272 274 279 287 295 303 310 315 317 321 326 326 327 324 324 324 323 248 347 217 199 211 116 148 160 113 98 111 185 168 198 206 236 213 186 125 347 245 127 218 188 157 150 139 142
270 275 279 284 293 300 308 313 313 321 325 326 330 326 321 305 270 340 7 249 162 154 148 145 130 99 217 253 209 240 245 221 25 196 126 136 136 193 218 243 165 163 161 161 166
267 270 275 281 289 297 303 308 310 312 316 325 329 331 344 346 251 290 78 99 108 127 151 200 144 137 279 248 291 222 319 39 190 146 88 113 144 177 62 63 131 143 145 167 154
277 268 271 278 287 293 299 303 303 302 306 317 324 327 317 284 264 124 41 251 140 141 203 221 213 197 251 264 52 101 32 71 70 162 89 119 204 216 119 134 146 159 162 175 139
294 276 269 273 280 289 297 299 296 292 294 302 312 319 287 242 313 318 304 214 181 162 203 218 212 132 25 349 147 109 40 360 3 47 12 182 225 234 144 159 156 164 190 179 164
293 287 274 272 279 289 296 296 292 291 289 275 225 160 251 250 282 297 195 277 209 211 216 235 177 204 161 332 26 74 44 8 355 154 338 135 284 133 150 153 183 173 190 191 186
291 291 286 273 277 289 299 296 294 299 243 157 116 155 265 317 271 261 173 207 161 196 205 203 193 91 15 80 22 13 233 240 338 228 95 171 288 128 154 170 175 189 190 202 184
289 288 286 274 275 295 308 293 288 356 134 173 241 352 269 238 289 291 180 192 181 291 82 67 55 55 35 72 198 203 145 17 299 228 173 257 255 154 183 174 178 187 200 206 202
278 290 286 281 280 315 356 347 333 250 215 204 188 239 282 297 282 261 163 127 107 59 141 348 72 213 232 210 181 164 173 201 291 315 234 239 222 188 186 183 172 188 191 206 212
269 275 285 289 286 349 71 269 246 169 304 235 242 251 265 64 308 273 147 125 121 205 110 28 249 208 166 204 251 127 35 279 285 278 187 305 262 172 180 204 195 186 198 206 213
259 270 281 293 255 112 210 231 356 344 257 281 202 204 197 150 209 252 160 140 149 156 186 160 227 129 165 201 232 254 213 256 250 322 204 126 311 189 211 216 193 210 204 203 203
259 261 272 295 212 157 238 264 288 192 311 266 228 255 161 155 241 202 204 144 124 195 158 228 260 210 191 225 158 257 210 216 273 8 275 83 277 265 229 223 215 203 203 206 201
248 249 260 180 356 212 198 329 294 337 314 223 184 153 156 171 154 210 194 70 162 174 126 241 178 182 193 220 157 237 163 225 215 120 50 325 74 267 150 231 233 219 204 210 205
230 237 236 178 201 253 317 326 55 66 247 295 142 173 148 243 174 110 146 68 136 120 333 227 178 160 204 209 173 58 139 52 51 83 69 251 150 282 207 222 240 214 214 209 203
222 223 188 208 209 80 282 176 188 209 317 217 181 150 180 174 202 143 159 163 150 126 195 322 215 232 185 81 67 120 59 351 1 19 219 266 100 239 293 254 233 218 217 212 197
226 208 223 227 234 302 206 183 221 211 242 315 145 112 180 153 220 172 138 169 262 107 130 170 305 175 187 177 192 87 135 152 250 220 271 298 237 259 209 277 276 239 218 215 191
216 196 218 208 203 150 222 214 204 201 220 245 99 133 219 210 153 139 188 182 183 169 155 144 264 139 210 117 140 196 113 165 105 39 41 260 297 309 350 315 331 354 193 200 193
209 181 230 177 172 178 194 227 210 228 348 336 211 174 179 199 149 161 176 198 192 185 163 199 174 273 158 167 99 184 157 74 12 181 269 298 291 247 314 311 323 333 309 190 224
192 196 225 173 157 200 208 218 219 265 344 301 290 243 201 172 167 179 193 223 186 178 128 142 126 272 295 187 185 134 180 65 120 138 175 273 268 221 254 264 286 266 263 261 205
187 205 182 151 191 216 218 200 233 243 288 280 274 260 205 175 152 180 187 199 174 151 159 197 143 185 205 300 162 171 189 151 137 208 152 156 272 260 249 282 253 267 247 238 225
197 188 171 167 191 211 198 192 240 227 222 238 262 242 301 186 168 182 197 218 146 146 160 184 175 72 341 358 15 191 200 138 109 77 188 144 259 306 294 292 295 279 266 239 227
161 162 206 191 222 202 193 194 205 213 247 181 287 291 289 307 218 203 207 201 172 191 124 107 141 163 202 212 158 192 198 175 146 129 186 218 262 292 293 296 290 285 274 255 233
194 200 195 181 207 209 193 193 191 213 203 163 264 237 167 245 19 170 151 110 109 161 137 144 189 178 223 196 181 205 202 169 193 190 168 237 195 255 265 277 276 274 275 251 255
171 186 196 177 202 198 199 203 198 205 173 210 221 208 208 234 190 84 81 159 198 198 155 195 203 139 190 28 76 214 229 185 198 179 251 238 252 224 262 346 359 345 85 72 49
224 277 179 206 181 188 211 199 194 192 225 183 207 226 239 230 247 257 251 239 217 207 194 151 137 115 228 27 90 329 226 208 208 192 172 195 219 165 155 117 24 9 53 68 49